Wind_Speed
23 25 26 31 29 31 26 22 23 17 12 9 10 16 15 19 22 25 34 25 31 26 27 34 41 41 45 50 48 36 26 27 24 29 28 31 27 22 11 14 19 21 18 18 19
24 25 26 29 28 28 23 21 21 14 10 8 7 11 10 18 21 26 23 30 27 24 30 30 37 40 42 46 48 51 43 24 22 24 30 31 26 23 15 14 19 21 20 19 20
23 25 25 27 25 26 21 21 18 10 10 9 8 11 10 12 19 28 28 31 26 31 32 27 29 35 39 44 44 48 51 41 33 25 16 36 27 22 17 18 21 23 21 19 20
22 25 25 24 23 23 19 18 14 10 9 7 6 8 9 8 10 27 30 26 29 38 28 27 31 35 34 36 35 37 36 41 30 31 26 34 41 24 21 20 21 21 23 20 20
23 23 24 22 21 21 17 14 12 10 8 6 6 7 9 10 14 14 32 26 36 40 31 30 31 35 35 32 31 33 24 35 34 38 36 30 46 33 25 21 21 21 22 22 21
24 21 23 21 19 19 16 13 9 8 8 7 7 7 8 12 14 20 22 28 36 34 34 29 30 30 30 28 28 27 30 25 35 32 38 40 43 41 32 22 19 20 21 22 22
24 21 21 21 18 16 15 11 6 5 5 7 13 6 8 9 7 16 18 20 41 35 38 28 26 29 28 23 26 14 25 15 21 24 30 29 49 55 43 33 23 16 23 25 23
26 22 20 20 17 14 14 11 7 4 3 6 10 8 2 4 5 21 14 21 40 36 35 25 25 28 22 26 22 22 15 21 19 21 25 21 34 48 56 47 32 22 26 28 25
27 22 19 18 17 12 12 11 9 6 5 6 8 7 3 4 6 18 17 19 29 39 35 26 25 29 23 25 20 25 21 26 24 23 26 25 25 22 26 56 40 32 23 31 29
27 20 18 17 17 12 10 10 9 6 4 4 6 4 4 4 2 12 11 17 25 37 40 25 28 33 30 28 25 31 19 26 19 32 28 24 23 19 11 25 45 27 28 33 30
26 20 18 16 16 12 8 8 8 6 4 5 2 2 3 6 10 8 14 17 35 36 35 27 37 41 35 28 17 23 20 21 14 14 23 22 17 19 13 18 17 43 32 34 34
25 18 16 14 16 11 8 7 4 5 4 2 3 3 3 7 6 5 7 14 34 38 35 29 29 36 30 26 15 11 22 19 17 15 10 18 20 19 19 16 14 19 41 35 34
23 17 14 13 15 11 9 7 5 2 4 2 0 3 4 6 5 6 5 9 35 35 29 18 24 31 28 25 16 13 23 26 17 11 13 9 17 23 24 23 18 17 42 39 38
22 15 13 12 13 10 7 7 6 3 2 3 2 3 7 7 6 6 6 4 27 30 15 10 21 31 28 24 19 14 11 13 17 18 10 14 6 18 23 26 24 18 32 42 40
20 14 11 11 12 9 9 5 3 3 2 3 2 5 8 3 10 6 8 6 25 26 16 7 25 30 28 19 26 15 14 13 13 19 13 15 8 16 23 28 28 23 23 28 43
17 13 11 10 10 9 8 2 1 1 2 3 5 8 6 9 8 12 12 7 19 22 15 16 25 28 29 20 16 14 20 15 12 11 5 17 16 14 20 25 22 21 26 24 38
16 12 11 10 9 8 6 2 2 3 3 5 6 10 9 8 13 15 19 17 10 14 10 23 28 25 30 22 16 20 25 5 2 3 4 9 15 26 6 4 4 11 20 25 27
14 12 10 9 8 7 6 4 4 6 7 7 12 10 7 8 10 12 19 18 12 3 11 10 17 26 27 29 19 20 18 6 6 4 3 9 9 7 1 3 3 12 14 17 27
14 11 10 9 10 7 6 6 4 3 4 11 15 8 8 4 6 12 15 13 13 9 4 8 8 25 27 31 20 20 16 6 6 4 1 6 6 9 12 3 9 12 18 19 21
13 10 9 10 10 6 8 6 6 6 7 9 2 5 7 4 9 13 8 16 14 12 4 10 11 22 22 24 27 16 22 8 3 3 3 2 5 8 7 6 5 6 9 14 20
12 10 8 8 7 5 7 8 8 6 5 6 9 8 8 8 6 10 5 17 15 13 9 13 11 15 15 20 23 26 19 14 9 5 3 1 3 7 10 3 12 18 15 12 15
11 8 9 6 6 6 7 6 6 5 5 7 7 9 12 10 9 6 7 4 12 15 11 9 11 15 16 16 24 25 23 25 14 5 9 5 10 8 6 14 20 11 17 14 13
10 9 5 4 3 8 7 9 9 5 3 4 5 7 10 8 4 5 7 8 10 12 12 10 7 10 6 8 14 21 27 25 28 20 15 8 5 3 4 5 4 16 25 19 13
10 7 3 2 2 6 8 6 8 6 6 4 6 7 7 6 3 5 6 5 11 13 11 11 10 5 9 4 10 22 27 28 27 23 22 38 37 37 28 26 28 35 32 25 14
9 6 3 1 5 7 6 5 6 6 5 3 4 3 3 3 5 6 6 6 11 15 16 10 8 9 4 5 7 9 13 18 33 39 35 42 41 40 39 37 38 34 27 27 22
9 9 4 6 8 7 7 6 8 5 5 5 4 5 3 2 3 5 5 7 5 11 14 17 4 8 12 14 15 18 20 21 26 25 32 39 47 32 29 35 29 27 31 27 24
8 6 4 6 10 9 8 8 9 7 4 4 2 2 4 5 5 6 4 6 3 4 5 8 6 2 3 5 7 13 14 18 26 28 28 32 28 27 29 27 26 20 19 24 24
Wind_Direction
330 327 335 339 342 343 338 335 338 335 324 310 270 251 267 248 227 214 209 212 210 201 205 210 209 210 203 207 213 214 197 212 212 206 201 206 208 211 209 199 194 193 188 190 190
330 328 334 337 342 345 340 339 339 331 336 314 266 249 254 220 216 209 218 208 199 190 201 206 206 207 207 209 206 210 231 213 217 206 206 205 214 210 208 196 196 195 195 190 189
330 333 334 335 342 346 343 344 344 325 324 323 278 246 245 227 224 212 214 214 191 187 197 201 199 207 208 214 214 210 216 227 219 204 190 207 207 205 206 203 197 197 193 190 191
331 336 337 335 342 346 346 354 359 356 330 311 298 270 254 246 230 217 215 209 185 187 184 190 196 202 206 209 215 224 228 224 216 216 216 201 214 208 197 201 202 196 195 191 193
332 333 339 337 340 345 347 357 360 359 353 319 299 267 252 239 232 233 218 214 184 188 184 185 196 197 201 205 209 211 217 229 226 221 229 217 218 216 199 192 197 199 198 196 193
334 328 336 338 337 342 344 355 358 358 2 347 322 271 257 239 230 227 220 205 193 187 189 182 197 194 198 202 204 211 220 230 229 238 229 222 221 228 205 204 196 196 203 196 196
333 328 331 336 333 335 342 342 351 351 7 350 1 331 241 237 223 228 204 216 183 180 190 187 188 195 194 187 202 190 207 218 213 222 243 228 220 221 217 215 204 203 197 201 198
335 332 326 333 330 330 338 336 342 301 328 347 2 22 84 287 184 188 177 197 178 177 186 181 184 193 188 194 198 199 200 205 209 209 221 215 226 224 226 223 218 212 198 202 202
333 331 320 329 331 324 330 338 323 321 280 307 338 3 15 72 154 175 189 179 179 180 187 183 184 186 186 188 186 191 199 198 192 217 215 217 244 231 241 235 219 220 211 203 203
333 329 318 325 333 321 321 333 338 330 333 300 306 1 40 54 193 143 170 178 183 178 188 186 195 186 189 186 191 191 192 199 186 202 214 222 237 235 266 235 227 208 205 202 202
333 330 317 324 331 323 318 315 345 4 353 2 16 6 50 59 153 181 198 180 170 181 183 185 190 190 192 192 196 197 190 195 208 225 227 225 233 231 242 247 228 216 208 202 200
333 332 318 322 329 327 319 315 327 13 10 13 70 78 93 80 128 167 225 159 166 177 180 180 177 189 188 190 187 198 202 199 206 214 220 229 234 239 249 258 240 242 216 201 199
335 332 322 321 332 334 326 313 295 304 16 28 354 94 126 112 121 157 157 189 175 183 197 180 178 186 186 184 185 198 208 204 206 202 215 226 243 233 231 248 236 257 205 204 201
336 331 323 320 334 336 337 320 312 283 174 86 125 106 141 127 116 137 121 198 168 176 172 195 179 185 178 184 180 174 181 200 208 197 196 214 267 245 236 243 241 251 213 200 204
336 327 323 327 336 342 346 329 335 108 99 146 65 126 140 110 128 141 129 166 163 180 174 158 175 180 175 181 192 206 177 180 186 205 209 215 249 263 242 235 224 228 224 220 215
334 327 326 327 336 346 356 359 81 105 64 141 130 137 127 124 118 132 145 160 142 162 183 166 173 174 175 151 166 188 168 158 162 192 242 230 222 270 251 253 250 248 228 221 223
337 330 333 330 341 351 10 74 70 50 106 128 151 141 131 126 131 123 149 164 120 144 171 144 161 172 182 172 165 162 164 114 139 192 222 208 217 238 226 226 227 238 233 223 221
339 334 334 336 347 352 25 44 53 50 88 126 139 142 126 129 131 120 153 173 194 119 157 129 149 180 184 184 176 168 177 163 173 188 206 186 233 260 60 192 293 235 234 225 226
340 337 336 343 3 8 50 60 48 24 83 129 134 132 137 102 142 140 135 143 179 211 135 119 113 170 181 193 184 183 202 179 113 130 154 220 248 260 278 296 276 262 243 247 245
340 331 332 338 1 28 69 72 84 77 61 148 118 132 140 159 161 146 128 146 153 177 118 135 123 173 177 189 205 204 201 199 191 138 235 262 256 221 165 118 63 354 296 258 233
343 327 335 345 1 71 80 108 103 69 45 45 95 137 141 176 166 149 155 170 156 159 158 134 144 181 178 197 198 202 208 213 207 225 186 268 249 167 162 29 343 326 310 291 260
342 328 341 349 12 90 111 117 111 91 76 79 71 123 145 152 172 167 167 125 165 170 146 150 151 147 183 212 208 211 218 220 222 220 229 252 245 174 183 304 300 343 351 316 276
338 318 328 337 64 112 116 105 88 91 106 105 98 77 92 99 133 153 181 192 181 179 181 172 147 137 205 210 206 212 222 226 226 237 246 232 244 176 247 188 241 325 319 329 296
328 303 311 280 136 139 127 105 90 81 84 107 132 119 118 104 96 153 153 164 195 197 196 193 165 158 179 156 200 219 225 228 234 240 247 249 260 255 258 265 279 294 294 294 294
329 307 280 232 171 167 163 151 127 90 88 95 119 143 139 118 108 143 146 149 192 194 201 206 221 220 216 235 258 256 253 246 244 246 243 262 266 275 280 284 289 288 282 288 268
314 298 253 215 197 182 177 165 163 148 111 87 122 123 128 125 94 142 138 147 164 201 201 215 194 230 245 252 261 266 259 255 255 257 257 259 266 277 286 282 279 279 278 271 256
320 296 236 205 197 187 198 193 178 176 160 160 139 130 123 127 122 117 136 174 159 144 175 185 198 184 223 251 274 274 279 264 261 263 266 267 285 296 286 279 274 272 273 244 246
Height
3079 3075 3072 3066 3059 3053 3046 3041 3037 3034 3032 3030 3030 3032 3034 3036 3040 3042 3048 3055 3062 3068 3073 3079 3087 3094 3100 3107 3113 3119 3123 3129 3133 3136 3139 3144 3147 3153 3156 3158 3161 3163 3165 3168 3171
3076 3071 3068 3062 3056 3050 3045 3039 3035 3033 3031 3030 3030 3031 3031 3033 3036 3039 3046 3050 3056 3063 3070 3074 3081 3089 3095 3102 3108 3113 3115 3124 3131 3134 3137 3140 3146 3150 3155 3156 3159 3160 3162 3164 3168
3072 3068 3064 3059 3053 3048 3043 3038 3033 3032 3030 3029 3029 3029 3030 3031 3034 3036 3040 3044 3050 3058 3065 3071 3078 3086 3091 3096 3101 3105 3111 3121 3129 3131 3134 3138 3143 3147 3151 3153 3155 3158 3160 3163 3166
3069 3065 3060 3056 3051 3046 3041 3036 3033 3031 3029 3028 3027 3028 3029 3031 3034 3032 3035 3040 3043 3053 3061 3067 3073 3080 3087 3091 3097 3104 3108 3116 3123 3127 3132 3135 3140 3144 3147 3151 3154 3156 3158 3161 3164
3066 3061 3058 3053 3048 3044 3039 3035 3033 3031 3029 3027 3026 3026 3027 3028 3029 3030 3032 3036 3040 3048 3058 3064 3070 3076 3083 3089 3095 3099 3103 3111 3116 3122 3128 3133 3135 3139 3144 3147 3150 3154 3155 3158 3161
3063 3058 3055 3051 3046 3043 3039 3035 3032 3030 3028 3027 3026 3024 3024 3026 3027 3027 3029 3033 3040 3047 3056 3062 3069 3076 3083 3088 3095 3099 3107 3113 3115 3118 3124 3129 3133 3134 3142 3144 3145 3150 3153 3155 3158
3060 3056 3052 3048 3045 3041 3037 3034 3031 3029 3028 3027 3025 3021 3021 3023 3023 3024 3028 3031 3038 3049 3056 3063 3070 3076 3080 3087 3092 3099 3104 3107 3111 3114 3120 3125 3128 3125 3136 3139 3142 3146 3149 3153 3155
3056 3053 3050 3046 3042 3039 3036 3033 3031 3029 3027 3026 3025 3022 3021 3020 3020 3022 3026 3032 3038 3047 3058 3063 3068 3075 3081 3085 3090 3097 3101 3105 3107 3111 3116 3121 3119 3126 3128 3133 3137 3142 3145 3149 3152
3053 3050 3046 3043 3040 3037 3034 3031 3030 3028 3027 3025 3025 3023 3022 3022 3020 3023 3027 3031 3039 3047 3056 3062 3067 3072 3079 3084 3089 3095 3097 3101 3107 3110 3114 3117 3117 3124 3126 3128 3133 3139 3141 3144 3147
3050 3047 3043 3041 3037 3034 3032 3030 3029 3027 3027 3025 3025 3026 3024 3023 3022 3023 3027 3032 3037 3044 3053 3058 3062 3068 3075 3079 3082 3087 3093 3098 3100 3106 3109 3111 3113 3120 3123 3124 3130 3135 3136 3139 3143
3047 3043 3040 3038 3035 3032 3031 3030 3031 3029 3026 3026 3025 3024 3023 3024 3024 3026 3028 3031 3035 3044 3050 3054 3058 3059 3068 3078 3085 3090 3096 3100 3103 3107 3110 3110 3113 3118 3121 3121 3121 3127 3131 3134 3138
3044 3040 3037 3036 3033 3030 3029 3028 3028 3029 3027 3025 3025 3024 3024 3024 3026 3027 3028 3029 3035 3041 3050 3053 3054 3063 3071 3080 3085 3089 3094 3100 3104 3107 3109 3111 3114 3116 3116 3118 3120 3121 3128 3130 3134
3041 3038 3036 3034 3031 3029 3027 3027 3027 3027 3027 3026 3026 3025 3025 3027 3026 3027 3030 3029 3035 3042 3047 3051 3058 3064 3072 3079 3085 3089 3092 3097 3102 3106 3109 3110 3110 3109 3110 3113 3115 3116 3121 3125 3128
3039 3036 3034 3033 3032 3027 3025 3024 3024 3025 3027 3029 3027 3027 3027 3027 3028 3027 3030 3034 3036 3042 3048 3052 3058 3064 3073 3079 3085 3089 3093 3096 3099 3103 3106 3106 3103 3099 3102 3106 3106 3108 3114 3119 3124
3037 3033 3032 3030 3029 3026 3026 3025 3024 3025 3028 3030 3028 3027 3028 3030 3031 3030 3032 3036 3039 3043 3051 3054 3058 3065 3073 3079 3084 3089 3092 3096 3098 3101 3103 3104 3106 3096 3103 3099 3099 3105 3110 3114 3119
3036 3033 3031 3030 3028 3026 3025 3025 3025 3027 3027 3029 3028 3029 3030 3030 3031 3032 3034 3039 3042 3047 3052 3055 3058 3066 3073 3078 3084 3088 3092 3096 3099 3101 3102 3102 3105 3092 3092 3093 3098 3102 3105 3109 3113
3035 3032 3032 3030 3029 3026 3024 3026 3027 3024 3029 3030 3029 3031 3031 3032 3033 3034 3036 3039 3042 3049 3052 3054 3060 3066 3073 3078 3083 3086 3090 3096 3101 3101 3098 3097 3100 3090 3094 3095 3094 3096 3098 3103 3108
3034 3033 3032 3030 3028 3027 3028 3030 3028 3029 3028 3028 3030 3033 3034 3034 3035 3036 3040 3041 3045 3048 3049 3053 3066 3068 3071 3078 3081 3085 3088 3088 3093 3096 3095 3095 3091 3088 3089 3089 3091 3095 3097 3099 3102
3034 3033 3032 3030 3028 3027 3026 3026 3030 3031 3029 3030 3031 3034 3035 3035 3036 3038 3039 3042 3045 3049 3051 3055 3061 3067 3072 3077 3082 3084 3086 3088 3088 3092 3093 3089 3088 3089 3088 3089 3091 3092 3092 3094 3096
3035 3034 3032 3029 3028 3027 3029 3030 3031 3032 3031 3032 3032 3033 3035 3037 3037 3039 3041 3044 3047 3050 3052 3055 3060 3066 3071 3076 3080 3082 3087 3089 3088 3093 3091 3085 3085 3084 3086 3088 3089 3088 3088 3088 3089
3035 3034 3032 3030 3030 3029 3029 3029 3031 3033 3033 3033 3032 3034 3035 3037 3039 3040 3044 3046 3047 3050 3053 3055 3059 3068 3071 3073 3076 3081 3082 3085 3087 3086 3085 3086 3081 3081 3083 3084 3085 3086 3086 3085 3086
3034 3033 3031 3031 3031 3028 3030 3031 3032 3034 3034 3034 3034 3034 3036 3039 3040 3041 3043 3045 3049 3053 3055 3058 3060 3065 3069 3071 3074 3077 3079 3082 3084 3084 3082 3082 3079 3079 3080 3082 3083 3083 3083 3082 3080
3033 3032 3031 3031 3030 3030 3032 3034 3034 3035 3036 3037 3037 3037 3037 3040 3042 3043 3044 3047 3050 3053 3055 3057 3060 3064 3069 3072 3071 3073 3076 3078 3079 3079 3076 3080 3074 3076 3077 3078 3080 3079 3081 3082 3079
3032 3031 3031 3029 3030 3033 3035 3037 3037 3037 3038 3038 3039 3040 3040 3041 3042 3043 3044 3046 3048 3050 3053 3056 3057 3059 3062 3063 3065 3069 3071 3073 3075 3075 3075 3064 3068 3070 3075 3075 3076 3077 3076 3077 3079
3031 3029 3028 3028 3030 3033 3035 3036 3035 3034 3037 3039 3039 3039 3040 3041 3042 3043 3044 3045 3046 3048 3051 3055 3056 3058 3060 3062 3063 3065 3068 3069 3068 3069 3068 3061 3060 3065 3067 3068 3069 3071 3072 3073 3073
3029 3027 3026 3027 3029 3031 3033 3035 3035 3034 3034 3037 3039 3039 3040 3041 3042 3043 3044 3045 3046 3048 3051 3054 3056 3057 3059 3060 3061 3062 3062 3062 3061 3061 3059 3058 3054 3062 3062 3061 3061 3062 3063 3065 3067
3026 3024 3024 3024 3026 3030 3031 3031 3033 3034 3038 3037 3040 3041 3041 3041 3042 3043 3045 3046 3047 3049 3050 3052 3055 3057 3058 3058 3059 3058 3054 3055 3055 3056 3057 3054 3053 3056 3053 3053 3053 3054 3055 3056 3059